Date String (YYYY-MM-DD hh:mm:ss) UTC,Instrument flags,Ambient pressure (hPa),Sample flow (lpm),Bypass flow (lpm),Sample temperature (°C),Ambient temperature (°C),ASC tube jacket temperature (°C),LED temperature (°C),Box temperature (°C),Sample RH (%),Span deviation,Mass concentration (μg/m³),Mass concentration (μg/m³),Mass concentration (μg/m³)
DateTimeUTC,F1_M11,P_M11,Q1_M11,Q2_M11,T1_M11,T2_M11,T3_M11,T4_M11,T5_M11,U1_M11,ZSPAN_M11,X0_M11,X2_M11,X1_M11
2021-09-01 17:00:00,,0823.7,5.01,0.00,29.7,28.7,00.0,38.7,31.6,24.4,0001.4,0041.95,0026.46,0024.03
2021-09-01 17:01:00,,0823.7,4.99,0.00,29.8,28.8,00.0,38.7,31.6,24.4,0001.4,0042.00,0026.43,0024.00
2021-09-01 17:02:00,,0823.7,4.99,0.00,29.8,28.9,00.0,38.8,31.7,24.6,0001.5,0042.99,0026.40,0023.97
2021-09-01 17:03:00,,0823.7,4.99,0.00,29.9,29.0,00.0,38.8,31.8,24.2,0001.6,0042.59,0026.35,0023.94
2021-09-01 17:04:00,,0823.7,5.01,0.00,29.9,28.6,00.0,38.8,31.6,24.0,0001.7,0042.43,0026.35,0023.93
2021-09-01 17:05:00,,0823.7,4.98,0.00,29.8,26.9,00.0,38.8,31.2,23.9,0001.8,0042.36,0026.27,0023.94
2021-09-01 17:06:00,,0823.7,5.00,0.00,29.6,26.3,00.0,38.8,31.0,23.3,0001.9,0042.61,0026.31,0023.98
2021-09-01 17:07:00,,0823.7,4.99,0.00,29.6,26.7,00.0,38.8,31.1,23.9,0001.8,0042.47,0026.35,0023.99
2021-09-01 17:08:00,,0823.7,5.00,0.00,29.6,27.2,00.0,38.7,31.2,23.4,0002.0,0043.02,0026.35,0024.02
2021-09-01 17:09:00,,0823.7,5.00,0.00,29.6,27.6,00.0,38.7,31.2,22.8,0001.9,0043.53,0026.42,0024.05
2021-09-01 17:10:00,,0823.7,4.99,0.00,29.6,27.9,00.0,38.7,31.3,22.6,0001.7,0044.47,0026.55,0024.11
2021-09-01 17:11:00,,0823.7,5.01,0.00,29.6,28.2,00.0,38.7,31.4,22.1,0001.9,0044.56,0026.59,0024.18
2021-09-01 17:12:00,,0823.7,4.99,0.00,29.7,28.4,00.0,38.7,31.5,20.2,0002.1,0044.74,0026.69,0024.33
2021-09-01 17:13:00,,0823.7,5.01,0.00,29.7,28.6,00.0,38.7,31.5,19.5,0002.0,0043.93,0026.93,0024.57
2021-09-01 17:14:00,,0823.7,5.00,0.00,29.8,28.8,00.0,38.7,31.6,19.4,0002.0,0043.57,0027.22,0024.79
2021-09-01 17:15:00,,0823.7,4.99,0.00,29.8,28.9,00.0,38.8,31.7,19.7,0002.1,0045.33,0027.43,0024.99
2021-09-01 17:16:00,,0823.7,4.99,0.00,29.9,29.0,00.0,38.8,31.8,18.3,0002.0,0047.09,0027.70,0025.23
2021-09-01 17:17:00,,0823.7,5.01,0.00,29.9,28.3,00.0,38.8,31.6,18.2,0001.9,0048.52,0027.90,0025.43
2021-09-01 17:18:00,,0823.7,5.00,0.00,29.7,26.7,00.0,38.8,31.1,19.4,0002.0,0048.68,0028.02,0025.58
2021-09-01 17:19:00,,0823.7,4.99,0.00,29.6,26.5,00.0,38.8,31.1,20.1,0001.8,0047.87,0028.12,0025.72
2021-09-01 17:20:00,,0823.7,5.00,0.00,29.6,26.9,00.0,38.8,31.2,21.3,0001.9,0048.37,0028.20,0025.81
2021-09-01 17:21:00,,0823.7,5.00,0.00,29.6,27.3,00.0,38.7,31.2,21.0,0001.9,0048.71,0028.21,0025.82
2021-09-01 17:22:00,,0823.7,5.00,0.00,29.6,27.7,00.0,38.7,31.3,20.4,0001.5,0048.66,0028.16,0025.81
2021-09-01 17:23:00,,0823.7,5.00,0.00,29.6,28.1,00.0,38.7,31.4,20.9,0001.3,0048.64,0028.16,0025.77
2021-09-01 17:24:00,,0823.6,5.00,0.00,29.7,28.4,00.0,38.7,31.5,21.1,0001.3,0048.36,0028.03,0025.64
2021-09-01 17:25:00,,0823.6,5.00,0.00,29.7,28.6,00.0,38.7,31.5,20.3,0001.5,0049.54,0027.81,0025.53
2021-09-01 17:26:00,,0823.7,4.99,0.00,29.8,28.8,00.0,38.7,31.6,20.1,0001.4,0047.72,0027.55,0025.36
2021-09-01 17:27:00,,0823.7,4.99,0.00,29.8,28.8,00.0,38.8,31.7,20.6,0001.5,0045.31,0027.33,0025.17
2021-09-01 17:28:00,,0823.7,4.99,0.00,29.8,27.5,00.0,38.8,31.3,20.6,0001.5,0043.34,0027.10,0024.99
2021-09-01 17:29:00,,0823.6,5.00,0.00,29.6,26.3,00.0,38.7,31.0,20.5,0001.8,0042.91,0026.92,0024.83
2021-09-01 17:30:00,,0823.6,5.01,0.00,29.6,26.6,00.0,38.7,31.0,20.4,0001.8,0043.07,0026.78,0024.69
2021-09-01 17:31:00,,0823.6,4.99,0.00,29.5,27.0,00.0,38.7,31.1,20.2,0001.8,0042.57,0026.70,0024.60
2021-09-01 17:32:00,,0823.6,5.01,0.00,29.5,27.4,00.0,38.7,31.2,20.3,0001.7,0042.23,0026.59,0024.57
2021-09-01 17:33:00,,0823.6,5.00,0.00,29.6,27.8,00.0,38.7,31.3,20.4,0001.6,0042.19,0026.57,0024.56
2021-09-01 17:34:00,,0823.6,4.99,0.00,29.6,28.1,00.0,38.7,31.4,20.3,0001.8,0041.71,0026.43,0024.52
2021-09-01 17:35:00,,0823.6,5.00,0.00,29.6,28.4,00.0,38.7,31.5,20.3,0001.6,0041.23,0026.29,0024.44
2021-09-01 17:36:00,,0823.5,5.01,0.00,29.7,28.6,00.0,38.7,31.5,20.3,0001.2,0039.23,0026.17,0024.35
2021-09-01 17:37:00,,0823.4,4.99,0.00,29.7,28.7,00.0,38.7,31.6,20.3,0001.2,0039.15,0026.17,0024.36
2021-09-01 17:38:00,,0823.4,4.99,0.00,29.8,28.9,00.0,38.7,31.7,20.2,0001.2,0039.52,0026.10,0024.35
2021-09-01 17:39:00,,0823.4,5.01,0.00,29.8,28.7,00.0,38.8,31.6,20.4,0001.1,0039.38,0026.09,0024.35
2021-09-01 17:40:00,,0823.4,5.00,0.00,29.7,27.0,00.0,38.7,31.1,20.3,0000.8,0039.10,0026.10,0024.36
2021-09-01 17:41:00,,0823.4,5.00,0.00,29.6,26.1,00.0,38.7,30.9,20.9,0001.0,0038.82,0026.08,0024.35
2021-09-01 17:42:00,,0823.4,5.00,0.00,29.5,26.5,00.0,38.7,31.0,20.9,0000.9,0038.96,0026.04,0024.38
2021-09-01 17:43:00,,0823.4,4.99,0.00,29.5,27.0,00.0,38.7,31.0,20.9,0000.7,0039.16,0026.08,0024.38
2021-09-01 17:44:00,,0823.3,5.01,0.00,29.5,27.4,00.0,38.6,31.1,20.6,0000.8,0039.13,0026.04,0024.29
2021-09-01 17:45:00,,0823.3,4.99,0.00,29.5,27.8,00.0,38.6,31.3,20.3,0000.6,0038.76,0025.92,0024.15
2021-09-01 17:46:00,,0823.3,5.01,0.00,29.6,28.1,00.0,38.6,31.3,20.7,0000.9,0039.56,0025.81,0024.08
2021-09-01 17:47:00,,0823.3,4.99,0.00,29.6,28.3,00.0,38.6,31.4,20.9,0001.1,0039.64,0025.78,0024.06
2021-09-01 17:48:00,,0823.3,5.00,0.00,29.6,28.5,00.0,38.6,31.5,21.2,0001.2,0039.75,0025.73,0023.98
2021-09-01 17:49:00,,0823.3,5.01,0.00,29.7,28.7,00.0,38.7,31.6,20.9,0001.1,0039.79,0025.69,0023.89
2021-09-01 17:50:00,,0823.3,5.01,0.00,29.8,28.9,00.0,38.7,31.7,20.9,0000.9,0040.66,0025.67,0023.82
2021-09-01 17:51:00,,0823.4,5.00,0.00,29.8,28.9,00.0,38.7,31.7,21.1,0001.0,0041.18,0025.65,0023.76
2021-09-01 17:52:00,,0823.3,5.00,0.00,29.8,27.5,00.0,38.7,31.3,21.3,0001.2,0041.66,0025.63,0023.73
2021-09-01 17:53:00,,0823.4,5.00,0.00,29.6,26.2,00.0,38.7,31.0,21.7,0001.4,0041.10,0025.59,0023.67
2021-09-01 17:54:00,,0823.3,4.99,0.00,29.5,26.5,00.0,38.7,31.0,21.9,0001.6,0040.34,0025.53,0023.62
2021-09-01 17:55:00,,0823.3,5.01,0.00,29.5,26.9,00.0,38.7,31.1,21.8,0001.8,0040.29,0025.44,0023.59
2021-09-01 17:56:00,,0823.4,5.00,0.00,29.5,27.4,00.0,38.7,31.2,21.8,0001.8,0040.30,0025.47,0023.64
2021-09-01 17:57:00,,0823.4,5.00,0.00,29.5,27.8,00.0,38.6,31.3,21.6,0001.6,0040.14,0025.54,0023.68
2021-09-01 17:58:00,,0823.3,5.00,0.00,29.6,28.1,00.0,38.6,31.4,20.7,0001.3,0039.91,0025.46,0023.59
2021-09-01 17:59:00,,0823.4,4.99,0.00,29.6,28.4,00.0,38.7,31.5,20.6,0001.2,0039.36,0025.32,0023.44
